This demonstration page uses our WeatherBlox Daily Observations layout. Learn more.

Left ArrowRight Arrow

39.29038, -76.61219

Hourly Observations for December 15, 2020

Temp ( °F °C ) Dew Point ( °F °C ) Humidity (%) Winds ( mph kmh ) Pressure ( in mb ) Visibility ( mi km ) Precip ( " mm )
12:54 am 00:54 Mostly Clear 33 0.6 22 -5.6 64 64 WNW 6 9 30.18 1022 10 16 0.00 0.00
1:54 am 01:54 Mostly Clear 33 0.6 21 -6.1 61 61 W 5 7 30.21 1023 10 16 0.00 0.00
2:54 am 02:54 Mostly Clear 31 -0.6 21 -6.1 67 67 WNW 6 9 30.23 1024 10 16 0.00 0.00
3:54 am 03:54 Partly Cloudy 30 -1.1 21 -6.1 69 69 W 5 7 30.24 1024 10 16 0.00 0.00
4:54 am 04:54 Mostly Clear 30 -1.1 21 -6.1 69 69 Calm 30.26 1025 10 16 0.00 0.00
5:54 am 05:54 Mostly Clear 28 -2.2 20 -6.7 72 72 W 5 7 30.28 1026 10 16 0.00 0.00
6:54 am 06:54 Partly Cloudy 29 -1.7 20 -6.7 69 69 WSW 3 6 30.32 1027 10 16 0.00 0.00
7:54 am 07:54 Mostly Cloudy 32 0 21 -6.1 64 64 Calm 30.31 1027 10 16 0.00 0.00
8:54 am 08:54 Mostly Cloudy 34 1.1 22 -5.6 61 61 W 6 9 30.34 1027 10 16 0.00 0.00
9:54 am 09:54 Partly Cloudy 38 3.3 20 -6.7 48 48 NW 5 7 30.35 1028 10 16 0.00 0.00
10:54 am 10:54 Partly Cloudy 40 4.4 19 -7.2 43 43 N 5 7 30.35 1028 10 16 0.00 0.00
11:54 am 11:54 Mostly Cloudy 40 4.4 19 -7.2 43 43 NNW 6 9 30.32 1027 10 16 0.00 0.00
12:54 pm 12:54 Mostly Cloudy 41 5 20 -6.7 43 43 W 7 11 30.32 1027 10 16 0.00 0.00
1:54 pm 13:54 Mostly Cloudy 41 5 19 -7.2 41 41 NNW 6 9 30.32 1027 10 16 0.00 0.00
2:54 pm 14:54 Cloudy 41 5 19 -7.2 41 41 NW 3 6 30.32 1027 10 16 0.00 0.00
3:54 pm 15:54 Cloudy 40 4.4 19 -7.2 43 43 NNW 6 9 30.34 1027 10 16 0.00 0.00
4:54 pm 16:54 Cloudy 38 3.3 19 -7.2 46 46 NNW 3 6 30.34 1027 10 16 0.00 0.00
5:54 pm 17:54 Mostly Cloudy 37 2.8 20 -6.7 50 50 NNE 3 6 30.34 1028 10 16 0.00 0.00
6:54 pm 18:54 Mostly Cloudy 35 1.7 19 -7.2 52 52 NNE 6 9 30.35 1028 10 16 0.00 0.00
7:54 pm 19:54 Mostly Cloudy 34 1.1 19 -7.2 54 54 NE 6 9 30.35 1028 10 16 0.00 0.00
8:54 pm 20:54 Mostly Cloudy 35 1.7 19 -7.2 52 52 NE 6 9 30.33 1027 10 16 0.00 0.00
9:54 pm 21:54 Mostly Cloudy 33 0.6 20 -6.7 58 58 NE 7 11 30.32 1027 10 16 0.00 0.00
10:54 pm 22:54 Partly Cloudy 34 1.1 20 -6.7 56 56 ENE 5 7 30.35 1028 10 16 0.00 0.00
11:54 pm 23:54 Mostly Cloudy 30 -1.1 21 -6.1 69 69 Calm 30.35 1028 10 16 0.00 0.00

Powered by AerisWeather